Meteopurmerend
purmerend
Purmerend - Baaienwijk



My webcam  My webcam


Onweer radar Meer informatie blitzortung!


Regen radar Meer informatie rain snow radar


Bezoek onze andere website:

CandyAppleRed WebdesignWebdesign Purmerend Candy Apple Red

MeteopurmerendBlog

Template documentation
and downloads



Het weer levert geen direct gevaar op.    Er zijn geen waarschuwingen afgegeven.

15 daagse weersverwachting 0.000N 0.000E

  • Overzicht
  • Per uur
  • 15 dagen
  • Extra
  • Vergelijk
  • Kaarten
  • Dagkaart
  • Meer »
  • Info
  • Statistieken
  • Directe link
    Temp 6h Neerslag Wind  
 02:00     19:09    Daglengte: 17:09 Vandaag
06:00
19°
3.0 mm
4
12:00
21°
14.4 mm
4
18:00
20°
2.1 mm
5
 02:02     19:07    Daglengte: 17:05 Morgen
00:00
18°
 
4
06:00
20°
 
5
12:00
21°
 
6
18:00
20°
 
5
 02:04     19:04    Daglengte: 17:00 Vrijdag 30 Jul
00:00
17°
15.2 mm
5
06:00
16°
27.5 mm
4
12:00
19°
 
5
18:00
17°
 
1
 02:07     19:02    Daglengte: 16:55 Zaterdag 31 Jul
00:00
14°
 
3
Locatie info
Region:
Latitude: 60.4202°N
Longitude: 23.2372°E
0 masl
Temp/Neerslag /Baro Onweer/Dauwpunt
    Temp Baro 1h Neerslag Dauwpunt Wind UV Bewolking  
 02:00     19:09    Daglengte: 17:09 Vandaag
04:00
19°
1008.2 hPa
47%
16.1°
3
Windvlaag: 3.3 m/s
86%
05:00
19°
1007.5 hPa 1.0 mm
82%
16.1°
3
Windvlaag: 1.9 m/s
86%
06:00
19°
1007.1 hPa 2.0 mm
82%
17.3°
4
Windvlaag: 1.1 m/s
86%
07:00
19°
1006.8 hPa 2.7 mm
82%
18.4°
4
Windvlaag: 2.1 m/s
86%
08:00
20°
1006.5 hPa 3.1 mm
82%
18.7°
4
Windvlaag: 2.9 m/s
86% warningclass
09:00
20°
1006.1 hPa 2.6 mm
82%
19.1°
4
Windvlaag: 2.3 m/s
86% warningclass
10:00
21°
1005.7 hPa 1.7 mm
82%
19.7°
4
Windvlaag: 2.2 m/s
77%
11:00
21°
1005.1 hPa 2.4 mm
82%
19.8°
4
Windvlaag: 4.6 m/s
22%
12:00
21°
1004.6 hPa 1.9 mm
82%
20.1°
4
Windvlaag: 6.3 m/s
56%
13:00
21°
1004.1 hPa 2.1 mm
78%
20.0°
4
Windvlaag: 6 m/s
60% warningclass
14:00
21°
1003.7 hPa
72%
20.0°
4
Windvlaag: 5.8 m/s
25%
15:00
21°
1003.5 hPa
27%
19.6°
4
Windvlaag: 7.1 m/s
41%
16:00
21°
1003.6 hPa
21%
19.0°
5
Windvlaag: 8.6 m/s
68%
17:00
20°
1003.6 hPa
21%
18.4°
5
Windvlaag: 8.6 m/s
43%
18:00
20°
1003.6 hPa
27%
17.5°
5
Windvlaag: 8.5 m/s
39%
19:00
19°
1003.7 hPa
17%
17.1°
4
Windvlaag: 8.2 m/s
46%
20:00
19°
1003.5 hPa
22%
17.4°
4
Windvlaag: 7.6 m/s
53%
21:00
19°
1003.3 hPa
29%
17.8°
4
Windvlaag: 7.2 m/s
57%
22:00
19°
1003.0 hPa
30%
17.6°
4
Windvlaag: 7.7 m/s
36%
23:00
18°
1002.5 hPa
75%
18.0°
4
Windvlaag: 7.8 m/s
57%
 02:02     19:07    Daglengte: 17:05 Morgen
00:00
18°
1002.0 hPa
75%
18.0°
4
Windvlaag: 8.6 m/s
62%
01:00
18°
1001.5 hPa
66%
17.8°
4
Windvlaag: 8.4 m/s
61%
02:00
18°
1001.2 hPa
69%
18.0°
4
Windvlaag: 8.4 m/s
61%
03:00
18°
1001.0 hPa
68%
18.0°
4
Windvlaag: 8 m/s
82%
04:00
19°
1000.7 hPa
31%
18.1°
4
Windvlaag: 7.4 m/s
79%
05:00
19°
1000.3 hPa
73%
17.8°
5
Windvlaag: 7.4 m/s
63%
06:00
20°
1000.2 hPa
82%
18.4°
5
Windvlaag: 7.7 m/s
86%
07:00
20°
1000.0 hPa
81%
18.5°
5
Windvlaag: 7.8 m/s
69%
08:00
21°
999.8 hPa
79%
17.8°
6
Windvlaag: 8.2 m/s
69%
09:00
21°
999.8 hPa
73%
17.0°
6
Windvlaag: 8.2 m/s
34%
10:00
21°
999.7 hPa
70%
18.4°
6
Windvlaag: 8 m/s
37%
11:00
20°
999.6 hPa
72%
18.0°
6
Windvlaag: 7.9 m/s
57%
12:00
21°
999.4 hPa
74%
17.2°
6
Windvlaag: 7.7 m/s
23%
13:00
22°
999.2 hPa
79%
14.6°
6
Windvlaag: 7.5 m/s
21%
14:00
21°
999.0 hPa
75%
14.1°
6
Windvlaag: 7.5 m/s
18%
15:00
21°
998.9 hPa
21%
14.4°
6
Windvlaag: 7.3 m/s
24%
16:00
21°
998.5 hPa
14%
14.3°
6
Windvlaag: 6.5 m/s
6%
17:00
20°
998.1 hPa
14%
14.5°
5
Windvlaag: 9 m/s
7%
18:00
20°
997.8 hPa
14%
14.8°
5
Windvlaag: 8.7 m/s
11%
19:00
19°
997.7 hPa
61%
15.8°
4
Windvlaag: 8.7 m/s
17%
20:00
18°
997.5 hPa
14%
16.3°
4
Windvlaag: 10.1 m/s
8%
21:00
17°
996.9 hPa 5.0 mm
21%
16.3°
4
Windvlaag: 8.7 m/s
28%
22:00
17°
996.6 hPa
21%
15.7°
5
Windvlaag: 8.3 m/s
35%
23:00
17°
996.3 hPa 5.1 mm
24%
14.7°
5
Windvlaag: 8.8 m/s
55%
 02:04     19:04    Daglengte: 17:00 Vrijdag 30 Jul
00:00
17°
996.1 hPa 5.1 mm
26%
15.0°
5
Windvlaag: 8.2 m/s
49%
01:00
16°
995.7 hPa
24%
14.3°
4
Windvlaag: 8.1 m/s
27%
02:00
16°
995.2 hPa 5.1 mm
21%
13.4°
3
Windvlaag: 6.4 m/s
31%
03:00
16°
994.8 hPa 5.5 mm
23%
12.7°
4
Windvlaag: 7.5 m/s
51%
04:00
16°
994.4 hPa 5.8 mm
28%
12.8°
4
Windvlaag: 8.2 m/s
37% warningclass
05:00
17°
994.0 hPa 5.4 mm
87%
12.1°
4
Windvlaag: 9.2 m/s
61%
06:00
16°
993.6 hPa 5.7 mm
86%
13.8°
4
Windvlaag: 9.5 m/s
75%
07:00
17°
992.9 hPa
29%
14.5°
4
Windvlaag: 4.6 m/s
20%
08:00
18°
992.5 hPa
35%
16.6°
4
Windvlaag: 2.8 m/s
20%
09:00
19°
992.3 hPa
87%
14.9°
5
Windvlaag: 11.1 m/s
19%
10:00
18°
992.3 hPa
98%
15.3°
6
Windvlaag: 15.4 m/s
59%
11:00
18°
991.7 hPa
100%
17.2°
5
Windvlaag: 13.1 m/s
63%
12:00
19°
991.4 hPa
100%
15.2°
5
Windvlaag: 12.3 m/s
54%
13:00
19°
990.6 hPa
100%
15.4°
5
Windvlaag: 14.6 m/s
19%
14:00
19°
990.5 hPa
45%
17.2°
4
Windvlaag: 12.8 m/s
48%
15:00
18°
990.1 hPa
82%
15.2°
4
Windvlaag: 11.1 m/s
14%
16:00
18°
989.8 hPa
24%
16.5°
3
Windvlaag: 8.5 m/s
19%
17:00
18°
989.8 hPa
22%
15.7°
2
Windvlaag: 8.4 m/s
20%
18:00
17°
989.7 hPa
21%
16.5°
1
Windvlaag: 7.2 m/s
54%
19:00
16°
990.0 hPa
21%
15.6°
1
Windvlaag: 6.8 m/s
36%
20:00
15°
990.3 hPa
21%
14.8°
2
Windvlaag: 5.3 m/s
20%
21:00
15°
990.6 hPa
21%
14.4°
2
Windvlaag: 6.6 m/s
20%
22:00
14°
991.1 hPa
21%
13.9°
3
Windvlaag: 9.2 m/s
20%
23:00
14°
991.6 hPa
21%
13.5°
3
Windvlaag: 10.8 m/s
15%
 02:07     19:02    Daglengte: 16:55 Zaterdag 31 Jul
00:00
14°
992.0 hPa
21%
13.0°
3
Windvlaag: 12.6 m/s
14%
01:00
14°
988.2 hPa 52.0 mm
100%
12.8°
7
Windvlaag: 13 m/s
97%
02:00
14°
988.9 hPa 52.1 mm
100%
12.8°
6
Windvlaag: 11.9 m/s
91%
03:00
14°
989.7 hPa 52.1 mm
100%
12.6°
5
Windvlaag: 10.9 m/s
80%
Temp/Neerslag /Baro Onweer/Dauwpunt
    Temp Baro Neerslag Dauwpunt Wind Bewolking  
 02:00     19:09    Daglengte: 17:09 Vandaag
06:00
19°
1007.1 hPa 3.0 mm 17.3°
4
86%
09:00
20°
1006.1 hPa 8.4 mm 19.1°
4
86% warningclass
12:00
21°
1004.6 hPa 6.0 mm 20.1°
4
56%
15:00
21°
1003.5 hPa 2.1 mm 19.6°
4
41%
18:00
20°
1003.6 hPa   17.5°
5
39%
21:00
19°
1003.3 hPa   17.8°
4
57%
 02:02     19:07    Daglengte: 17:05 Morgen
00:00
18°
1002.0 hPa   18.0°
4
62%
03:00
18°
1001.0 hPa   18.0°
4
82%
06:00
20°
1000.2 hPa   18.4°
5
86%
09:00
21°
999.8 hPa   17.0°
6
34%
12:00
21°
999.4 hPa   17.2°
6
23%
15:00
21°
998.9 hPa   14.4°
6
24%
18:00
20°
997.8 hPa   14.8°
5
11%
21:00
17°
996.9 hPa 5.0 mm 16.3°
4
28%
 02:04     19:04    Daglengte: 17:00 Vrijdag 30 Jul
00:00
17°
996.1 hPa 10.2 mm 15.0°
5
49%
03:00
16°
994.8 hPa 10.6 mm 12.7°
4
51%
06:00
16°
993.6 hPa 16.9 mm 13.8°
4
75%
09:00
19°
992.3 hPa   14.9°
5
19%
12:00
19°
991.4 hPa   15.2°
5
54%
15:00
18°
990.1 hPa   15.2°
4
14%
18:00
17°
989.7 hPa   16.5°
1
54%
21:00
15°
990.6 hPa   14.4°
2
20%
 02:07     19:02    Daglengte: 16:55 Zaterdag 31 Jul
00:00
14°
992.0 hPa   13.0°
3
14%
03:00
14°
989.7 hPa 156.2 mm 12.6°
5
80%
06:00
17°
991.0 hPa 156.2 mm 14.2°
4
100%
09:00
20°
996.1 hPa 30.3 mm 11.9°
4
0%
12:00
20°
998.0 hPa 30.3 mm 12.7°
5
1%
15:00
19°
998.7 hPa 30.4 mm 11.9°
4
1%
18:00
16°
999.4 hPa 30.4 mm 13.0°
2
1%
21:00
14°
999.0 hPa 30.4 mm 13.4°
1
0%
 02:09     18:59    Daglengte: 16:50 Zondag 01 Aug
00:00
14°
997.9 hPa 30.4 mm 13.6°
2
0%
03:00
14°
996.2 hPa 31.3 mm 14.1°
2
1%
06:00
16°
995.4 hPa 36.1 mm 15.0°
3
1%
09:00
15°
995.2 hPa 41.5 mm 14.6°
1
1%
12:00
17°
996.2 hPa 41.7 mm 14.4°
2
1%
15:00
21°
996.7 hPa 41.7 mm 13.2°
4
1%
18:00
17°
997.8 hPa 42.1 mm 15.0°
3
1%
21:00
14°
998.6 hPa 43.3 mm 14.0°
2
0%
 02:12     18:57    Daglengte: 16:45 Maandag 02 Aug
00:00
13°
998.8 hPa 43.6 mm 12.9°
1
0%
03:00
13°
999.7 hPa 43.7 mm 12.4°
1
1%
06:00
17°
999.8 hPa 43.7 mm 14.7°
2
1%
09:00
20°
1000.7 hPa 44.3 mm 12.6°
4
1%
12:00
21°
1000.7 hPa 44.5 mm 9.2°
5
1%
15:00
18°
1001.4 hPa 45.1 mm 14.3°
3
1%
18:00
14°
1002.9 hPa 45.8 mm 13.1°
3
0%
21:00
11°
1004.2 hPa 45.8 mm 10.1°
2
0%
 02:14     18:54    Daglengte: 16:40 Dinsdag 03 Aug
00:00
10°
Voelt als: 8.8°
1005.8 hPa 45.8 mm 9.3°
2
0%
03:00
10°
Voelt als: 8.5°
1007.0 hPa 45.8 mm 8.6°
2
0%
06:00
15°
1008.1 hPa 45.8 mm 9.8°
2
0%
09:00
19°
1008.7 hPa 45.8 mm 6.8°
2
0%
12:00
17°
1009.7 hPa 45.8 mm 10.1°
3
1%
15:00
19°
1010.0 hPa 45.8 mm 8.4°
3
1%
18:00
15°
1010.7 hPa 45.8 mm 9.1°
1
1%
21:00
11°
1012.0 hPa 45.8 mm 7.5°
1
1%
 02:16     18:51    Daglengte: 16:35 Woensdag 04 Aug
00:00
10°
Voelt als: 9.7°
1012.3 hPa 45.8 mm 6.7°
1
1%
03:00
10°
Voelt als: 9.3°
1012.2 hPa   6.7°
2
1%
06:00
15°
1012.3 hPa 91.6 mm 8.0°
2
1%
12:00
19°
1011.7 hPa 93.2 mm 13.8°
3
1%
18:00
16°
1011.8 hPa 97.3 mm 13.5°
2
0%
 02:19     18:49    Daglengte: 16:30 Donderdag 05 Aug
00:00
13°
1012.9 hPa 97.7 mm 11.9°
2
0%
06:00
18°
1013.0 hPa 97.7 mm 13.7°
2
1%
12:00
21°
1012.0 hPa 98.0 mm 11.4°
4
1%
18:00
17°
1009.7 hPa 98.2 mm 12.6°
3
1%
 02:21     18:46    Daglengte: 16:25 Vrijdag 06 Aug
00:00
17°
1007.3 hPa 98.2 mm 12.8°
3
1%
06:00
20°
1005.7 hPa 98.6 mm 13.5°
4
1%
12:00
24°
1005.4 hPa 98.9 mm 15.4°
4
1%
18:00
21°
1004.2 hPa 99.9 mm 16.8°
3
1%
 02:24     18:43    Daglengte: 16:19 Zaterdag 07 Aug
00:00
15°
1009.6 hPa 0.7 mm 12.7°
2
68%
06:00
18°
1008.6 hPa 0.8 mm 13.9°
3
67%
12:00
21°
1007.9 hPa 2.3 mm 14.2°
3
75%
18:00
18°
1007.5 hPa 2.0 mm 14.2°
2
72%
 02:26     18:41    Daglengte: 16:15 Zondag 08 Aug
00:00
15°
1007.5 hPa 0.6 mm 13.7°
2
65%
06:00
18°
1007.2 hPa 0.5 mm 14.5°
2
71%
12:00
21°
1007.9 hPa 0.8 mm 13.9°
3
77%
18:00
18°
1008.5 hPa 0.7 mm 14.1°
2
61%
 02:29     18:38    Daglengte: 16:09 Maandag 09 Aug
00:00
15°
1009.5 hPa 0.5 mm 13.6°
1
67%
06:00
18°
1010.1 hPa 0.4 mm 14.2°
2
64%
12:00
21°
1011.0 hPa 0.9 mm 13.8°
2
68%
18:00
17°
1011.2 hPa 0.6 mm 14.0°
1
67%
 02:31     18:35    Daglengte: 16:04 Dinsdag 10 Aug
00:00
15°
1011.7 hPa 0.3 mm 12.9°
0
66%
06:00
18°
1011.7 hPa 0.4 mm 13.9°
1
75%
12:00
21°
1012.1 hPa   13.7°
1
69%
18:00
18°
1012.0 hPa 0.3 mm 14.1°
1
63%
 02:33     18:32    Daglengte: 15:59 Woensdag 11 Aug
00:00
15°
1012.5 hPa 0.4 mm 13.3°
0
49%
06:00
18°
1012.5 hPa 0.6 mm 14.1°
0
55%
12:00
22°
1012.5 hPa 0.7 mm 13.3°
1
53%
18:00
18°
1012.1 hPa 0.7 mm 13.7°
1
55%
 02:36     18:29    Daglengte: 15:53 Donderdag 12 Aug
00:00
15°
1012.0 hPa 0.5 mm 12.6°
0
62%
  CAPE Lifted Index Hail Supercell Tornado SRH 3km CL BTM PRES CL TOP PRES Swiss DWD icon SMHI TS
 02:00     19:09    Daglengte: 17:09 Vandaag
04:00 24 J/kg 1.2 K 0 % 0 % 0 % 0 m²/s² 0 0 1.56 61
05:00 82 J/kg 0.2 K 0 % 0 % 0 % 0 m²/s² 0 0 0.2 61
06:00 45 J/kg 0.4 K 0 % 0 % 0 % 0 m²/s² 0 0 0.4 61
07:00 3 J/kg 0.0 K 0 % 0 % 0 % 0 m²/s² 0 0 0 80
08:00 8 J/kg 0.3 K 0 % 0 % 0 % 0 m²/s² 0 0 0.48 95
09:00 5 J/kg -0.2 K 0 % 0 % 0 % 0 m²/s² 0 0 -0.11 95
10:00 0 J/kg -0.6 K 0 % 0 % 0 % 0 m²/s² 0 0 -0.6 80
11:00 498 J/kg -1.7 K 0 % 0 % 0 % 0 m²/s² 0 0 -1.49 80
12:00 822 J/kg -2.5 K 0 % 0 % 0 % 0 m²/s² 0 0 -1.87 3
13:00 1067 J/kg -3.4 K 0 % 0 % 0 % 0 m²/s² 0 0 -2.53 80
14:00 1268 J/kg -4.1 K 0 % 0 % 0 % 0 m²/s² 0 0 -2.93 3
15:00 1175 J/kg -3.7 K 0 % 0 % 0 % 0 m²/s² 0 0 -2.38 3
16:00 407 J/kg -1.7 K 0 % 0 % 0 % 0 m²/s² 0 0 0.04 3
17:00 418 J/kg -1.6 K 0 % 0 % 0 % 0 m²/s² 0 0 1.25 3
18:00 492 J/kg -2.0 K 0 % 0 % 0 % 0 m²/s² 0 0 0.94 3
19:00 467 J/kg -1.8 K 0 % 0 % 0 % 0 m²/s² 0 0 0.9 3
20:00 393 J/kg -1.5 K 0 % 0 % 0 % 0 m²/s² 0 0 0.96 2
21:00 354 J/kg -1.8 K 0 % 0 % 0 % 0 m²/s² 0 0 1.05 2
22:00 400 J/kg -1.9 K 0 % 0 % 0 % 0 m²/s² 0 0 1.04 2
23:00 470 J/kg -2.2 K 0 % 0 % 0 % 0 m²/s² 0 0 0.65 3
 02:02     19:07    Daglengte: 17:05 Morgen
00:00 494 J/kg -2.2 K 0 % 0 % 0 % 0 m²/s² 0 0 -0.16 80
01:00 491 J/kg -2.2 K 0 % 0 % 0 % 0 m²/s² 0 0 -0.55 2
02:00 566 J/kg -2.4 K 0 % 0 % 0 % 0 m²/s² 0 0 -0.81 2
03:00 743 J/kg -3.1 K 0 % 0 % 0 % 0 m²/s² 0 0 -2.05 3
04:00 1050 J/kg -4.2 K 0 % 0 % 0 % 0 m²/s² 0 0 -3.3 3
05:00 1266 J/kg -4.7 K 0 % 0 % 0 % 0 m²/s² 0 0 -3.71 80
06:00 1331 J/kg -4.6 K 0 % 0 % 0 % 0 m²/s² 0 0 -4.03 80
07:00 1135 J/kg -4.0 K 0 % 0 % 0 % 0 m²/s² 0 0 -3.49 3
08:00 968 J/kg -3.6 K 0 % 0 % 0 % 0 m²/s² 0 0 -2.76 3
09:00 715 J/kg -3.0 K 0 % 0 % 0 % 0 m²/s² 0 0 -1.8 3
10:00 466 J/kg -2.1 K 0 % 0 % 0 % 0 m²/s² 0 0 1.2 3
11:00 317 J/kg -1.6 K 0 % 0 % 0 % 0 m²/s² 0 0 1.79 3
12:00 260 J/kg -1.4 K 0 % 0 % 0 % 0 m²/s² 0 0 2.08 3
13:00 186 J/kg -0.8 K 0 % 0 % 0 % 0 m²/s² 0 0 2.68 3
14:00 114 J/kg -0.1 K 0 % 0 % 0 % 0 m²/s² 0 0 2.87 2
15:00 126 J/kg 0.2 K 0 % 0 % 0 % 0 m²/s² 0 0 3.08 2
16:00 171 J/kg -0.2 K 0 % 0 % 0 % 0 m²/s² 0 0 2.44 1
17:00 292 J/kg -0.8 K 0 % 0 % 0 % 0 m²/s² 0 0 1.03 1
18:00 480 J/kg -1.5 K 0 % 0 % 0 % 0 m²/s² 0 0 -0.24 2
19:00 587 J/kg -1.4 K 0 % 0 % 0 % 0 m²/s² 0 0 0.55 2
20:00 165 J/kg 0.5 K 0 % 0 % 0 % 0 m²/s² 0 0 4.07 1
21:00 361 J/kg -0.8 K 0 % 0 % 0 % 0 m²/s² 0 0 2.56 2
22:00 480 J/kg -0.6 K 0 % 0 % 0 % 0 m²/s² 0 0 1.08 2
23:00 384 J/kg 0.5 K 0 % 0 % 0 % 0 m²/s² 0 0 3.47 2
 02:04     19:04    Daglengte: 17:00 Vrijdag 30 Jul
00:00 542 J/kg -0.7 K 0 % 0 % 0 % 0 m²/s² 0 0 1.37 2
01:00 381 J/kg 0.1 K 0 % 0 % 0 % 0 m²/s² 0 0 2.29 2
02:00 350 J/kg -1.2 K 0 % 0 % 0 % 0 m²/s² 0 0 -0.06 2
03:00 412 J/kg -1.7 K 0 % 0 % 0 % 0 m²/s² 0 0 -0.11 2
04:00 733 J/kg -3.7 K 0 % 0 % 0 % 0 m²/s² 0 0 -2.44 3
05:00 690 J/kg -3.1 K 0 % 0 % 0 % 0 m²/s² 0 0 -0.49 3
06:00 461 J/kg -2.0 K 0 % 0 % 0 % 0 m²/s² 0 0 -1.55 2
07:00 16 J/kg 0.3 K 0 % 0 % 0 % 0 m²/s² 0 0 0.39 3
08:00 307 J/kg -2.7 K 0 % 0 % 0 % 0 m²/s² 0 0 -2.25 2
09:00 856 J/kg -3.8 K 0 % 0 % 0 % 0 m²/s² 0 0 -2.99 2
10:00 53 J/kg 0.2 K 0 % 0 % 0 % 0 m²/s² 0 0 0.71 3
11:00 416 J/kg -2.7 K 0 % 0 % 0 % 0 m²/s² 0 0 -2.1 2
12:00 905 J/kg -3.1 K 0 % 0 % 0 % 0 m²/s² 0 0 -2.47 3
13:00 831 J/kg -2.7 K 0 % 0 % 0 % 0 m²/s² 0 0 -1.11 2
14:00 835 J/kg -3.5 K 0 % 0 % 0 % 0 m²/s² 0 0 -1.85 3
15:00 12 J/kg -0.1 K 0 % 0 % 0 % 0 m²/s² 0 0 0.68 2
16:00 632 J/kg -2.3 K 0 % 0 % 0 % 0 m²/s² 0 0 -0.86 2
17:00 632 J/kg -1.9 K 0 % 0 % 0 % 0 m²/s² 0 0 -1.66 1
18:00 560 J/kg -2.2 K 0 % 0 % 0 % 0 m²/s² 0 0 -1.96 3
19:00 350 J/kg -1.1 K 0 % 0 % 0 % 0 m²/s² 0 0 -0.86 2
20:00 105 J/kg 0.3 K 0 % 0 % 0 % 0 m²/s² 0 0 1.23 1
21:00 22 J/kg -0.6 K 0 % 0 % 0 % 0 m²/s² 0 0 2.16 2
22:00 118 J/kg -2.0 K 0 % 0 % 0 % 0 m²/s² 0 0 0.58 1
23:00 20 J/kg 0.2 K 0 % 0 % 0 % 0 m²/s² 0 0 3.53 2
 02:07     19:02    Daglengte: 16:55 Zaterdag 31 Jul
00:00 0 J/kg 0.9 K 0 % 0 % 0 % 0 m²/s² 0 0 3.96 2
01:00 1 J/kg 0.7 K 0 % 0 % 0 % 0 m²/s² 0 0 3.79
02:00 0 J/kg 1.3 K 0 % 0 % 0 % 0 m²/s² 0 0 5.74
03:00 0 J/kg 1.7 K 0 % 0 % 0 % 0 m²/s² 0 0 6.14
Temp Baro Wind Neerslag
  EWN Forecast EWN WRFDA DWD ICON FMI HIRLAM MET Norway GFS
 02:00     19:09    Daglengte: 17:09 Vandaag
06:00 19.2° 1007.1 hPa 4.2 m/s 3.0 mm 18.5° 1007.6 hPa 4.5 m/s 6.0 mm 19.1° 1006.9 hPa 4.6 m/s -0.1 mm 20.8° 1007.0 hPa 3.4 m/s 0.0 mm 19.3° 1008.2 hPa 3.6 m/s
09:00 20.0° 1006.1 hPa 3.9 m/s 8.4 mm 18.8° 1006.7 hPa 5.2 m/s 14.5 mm 20.2° 1005.3 hPa 4.7 m/s 2.5 mm 20.9° 1006.1 hPa 3.5 m/s 0.0 mm 18.0° 1007.1 hPa 4.3 m/s
12:00 21.3° 1004.6 hPa 3.8 m/s 6.0 mm 20.6° 1005.0 hPa 3.0 m/s 21.4 mm 21.6° 1004.3 hPa 5.1 m/s 1.5 mm 21.5° 1005.3 hPa 3.0 m/s 0.0 mm 18.2° 1005.7 hPa 4.2 m/s
15:00 20.9° 1003.5 hPa 4.4 m/s 2.1 mm 22.3° 1004.0 hPa 4.8 m/s 27.7 mm 21.9° 1003.0 hPa 6.0 m/s 0.3 mm 20.7° 1004.9 hPa 3.1 m/s 0.0 mm 19.7° 1004.1 hPa 2.4 m/s
18:00 19.8° 1003.6 hPa 4.7 m/s 0.0 mm 19.9° 1003.9 hPa 3.8 m/s 30.7 mm 19.8° 1002.6 hPa 5.1 m/s 0.0 mm 20.3° 1004.5 hPa 3.0 m/s 0.0 mm 19.2° 1003.3 hPa 4.1 m/s
21:00 18.7° 1003.3 hPa 3.9 m/s 0.0 mm 18.0° 1003.1 hPa 4.1 m/s 31.0 mm 18.8° 1001.8 hPa 4.5 m/s 0.0 mm 18.4° 1004.2 hPa 2.3 m/s 0.0 mm 17.7° 1003.3 hPa 2.7 m/s
 02:02     19:07    Daglengte: 17:05 Morgen
00:00 18.2° 1002.0 hPa 4.3 m/s 0.0 mm 18.1° 1002.0 hPa 4.2 m/s 31.1 mm 18.3° 1000.7 hPa 4.6 m/s 0.3 mm 17.6° 1003.2 hPa 2.1 m/s 0.0 mm 17.6° 1002.0 hPa 3.0 m/s
03:00 18.3° 1001.0 hPa 4.0 m/s 0.0 mm 18.8° 1000.8 hPa 3.7 m/s 31.2 mm 18.4° 999.3 hPa 4.1 m/s 0.1 mm 18.2° 1002.1 hPa 2.3 m/s 0.0 mm 17.4° 1000.8 hPa 3.1 m/s
06:00 19.5° 1000.2 hPa 4.9 m/s 0.0 mm 20.1° 1000.0 hPa 4.3 m/s 33.8 mm 18.8° 998.1 hPa 5.3 m/s 0.5 mm 19.9° 1001.0 hPa 3.2 m/s 0.0 mm 19.9° 1000.1 hPa 4.9 m/s
09:00 21.4° 999.8 hPa 6.3 m/s 0.0 mm 21.7° 1000.3 hPa 6.2 m/s 39.8 mm 20.4° 997.5 hPa 7.0 m/s 0.4 mm 21.9° 1000.2 hPa 3.6 m/s 0.0 mm 21.0° 1000.7 hPa 5.3 m/s
12:00 20.8° 999.4 hPa 6.4 m/s 0.0 mm 23.1° 999.9 hPa 6.9 m/s 41.4 mm 19.9° 996.6 hPa 7.5 m/s 0.2 mm 20.5° 1000.1 hPa 4.4 m/s 0.0 mm 22.7° 1000.5 hPa 5.9 m/s
15:00 21.4° 998.9 hPa 6.3 m/s 0.0 mm 22.2° 999.3 hPa 6.5 m/s 41.4 mm 21.1° 996.1 hPa 7.5 m/s 0.1 mm 21.9° 999.5 hPa 4.8 m/s 0.0 mm 22.3° 999.8 hPa 5.9 m/s
18:00 19.6° 997.8 hPa 5.2 m/s 0.0 mm 20.3° 998.2 hPa 4.3 m/s 41.4 mm 19.4° 995.7 hPa 6.2 m/s 0.0 mm 20.0° 999.0 hPa 3.0 m/s 0.0 mm 19.0° 998.9 hPa 4.5 m/s
21:00 17.3° 996.9 hPa 4.4 m/s 5.0 mm 16.5° 997.5 hPa 3.2 m/s 42.1 mm 17.7° 995.2 hPa 4.7 m/s 0.0 mm 16.9° 997.9 hPa 3.9 m/s
 02:04     19:04    Daglengte: 17:00 Vrijdag 30 Jul
00:00 16.7° 996.1 hPa 4.6 m/s 10.2 mm 17.2° 997.3 hPa 3.7 m/s 43.3 mm 16.4° 994.3 hPa 4.5 m/s 0.0 mm 14.9° 997.0 hPa 4.2 m/s
03:00 15.6° 994.8 hPa 3.5 m/s 10.6 mm 16.2° 995.9 hPa 3.7 m/s 45.9 mm 15.4° 993.4 hPa 3.0 m/s 0.0 mm 14.0° 996.2 hPa 3.2 m/s
06:00 16.5° 993.6 hPa 4.4 m/s 16.9 mm 16.0° 995.5 hPa 4.9 m/s 48.0 mm 16.5° 992.5 hPa 4.3 m/s 0.0 mm 16.3° 994.0 hPa 5.9 m/s
09:00 18.7° 992.3 hPa 4.9 m/s 0.0 mm 17.6° 994.7 hPa 5.8 m/s 76.5 mm 19.0° 991.6 hPa 4.7 m/s 0.0 mm 15.5° 994.2 hPa 5.7 m/s
12:00 18.5° 991.4 hPa 4.6 m/s 0.0 mm 17.8° 993.8 hPa 5.8 m/s 104.6 mm 18.7° 990.7 hPa 4.3 m/s 0.1 mm 15.2° 993.3 hPa 5.5 m/s
15:00 17.9° 990.1 hPa 3.5 m/s 0.0 mm 15.8° 991.1 hPa 4.8 m/s 127.9 mm 18.4° 989.9 hPa 3.2 m/s 0.1 mm 15.9° 991.3 hPa 6.9 m/s
18:00 17.1° 989.7 hPa 0.9 m/s 0.0 mm 16.0° 988.5 hPa 2.6 m/s 147.0 mm 17.4° 990.1 hPa 0.4 m/s 0.0 mm 15.0° 988.2 hPa 4.2 m/s
21:00 14.6° 990.6 hPa 1.9 m/s 0.0 mm 12.0° 986.7 hPa 2.1 m/s 155.0 mm 15.2° 991.6 hPa 1.9 m/s 0.0 mm 14.5° 989.0 hPa 4.3 m/s
 02:07     19:02    Daglengte: 16:55 Zaterdag 31 Jul
00:00 13.9° 992.0 hPa 3.2 m/s 0.0 mm 13.0° 987.8 hPa 4.8 m/s 156.0 mm 14.1° 993.1 hPa 2.8 m/s 0.0 mm 13.4° 990.7 hPa 3.7 m/s
03:00 13.9° 989.7 hPa 5.0 m/s 156.2 mm 13.9° 989.7 hPa 5.0 m/s 156.2 mm 13.0° 992.5 hPa 3.7 m/s
06:00 17.4° 991.0 hPa 3.7 m/s 156.2 mm 17.4° 991.0 hPa 3.7 m/s 156.2 mm 16.7° 994.9 hPa 4.0 m/s
09:00 20.3° 996.1 hPa 4.4 m/s 30.3 mm 20.3° 996.1 hPa 4.4 m/s 30.3 mm
12:00 19.6° 998.0 hPa 4.6 m/s 30.3 mm 19.6° 998.0 hPa 4.6 m/s 30.3 mm
15:00 19.5° 998.7 hPa 3.8 m/s 30.4 mm 19.5° 998.7 hPa 3.8 m/s 30.4 mm
18:00 16.5° 999.4 hPa 1.9 m/s 30.4 mm 16.5° 999.4 hPa 1.9 m/s 30.4 mm
21:00 13.9° 999.0 hPa 1.5 m/s 30.4 mm 13.9° 999.0 hPa 1.5 m/s 30.4 mm
 02:09     18:59    Daglengte: 16:50 Zondag 01 Aug
00:00 13.9° 997.9 hPa 1.8 m/s 30.4 mm 13.9° 997.9 hPa 1.8 m/s 30.4 mm
03:00 14.4° 996.2 hPa 1.7 m/s 31.3 mm 14.4° 996.2 hPa 1.7 m/s 31.3 mm
06:00 16.0° 995.4 hPa 2.7 m/s 36.1 mm 16.0° 995.4 hPa 2.7 m/s 36.1 mm
09:00 15.4° 995.2 hPa 1.3 m/s 41.5 mm 15.4° 995.2 hPa 1.3 m/s 41.5 mm
12:00 16.7° 996.2 hPa 2.2 m/s 41.7 mm 16.7° 996.2 hPa 2.2 m/s 41.7 mm
15:00 20.6° 996.7 hPa 4.4 m/s 41.7 mm 20.6° 996.7 hPa 4.4 m/s 41.7 mm
18:00 17.2° 997.8 hPa 3.3 m/s 42.1 mm 17.2° 997.8 hPa 3.3 m/s 42.1 mm
21:00 14.3° 998.6 hPa 2.0 m/s 43.3 mm 14.3° 998.6 hPa 2.0 m/s 43.3 mm
 02:12     18:57    Daglengte: 16:45 Maandag 02 Aug
00:00 13.2° 998.8 hPa 0.8 m/s 43.6 mm 13.2° 998.8 hPa 0.8 m/s 43.7 mm
03:00 12.9° 999.7 hPa 1.1 m/s 43.7 mm 12.9° 999.7 hPa 1.1 m/s 43.7 mm
06:00 17.1° 999.8 hPa 2.5 m/s 43.7 mm 17.1° 999.8 hPa 2.5 m/s 43.7 mm
09:00 19.5° 1000.7 hPa 4.0 m/s 44.3 mm 19.5° 1000.7 hPa 4.0 m/s 44.3 mm
12:00 20.9° 1000.7 hPa 5.0 m/s 44.5 mm 20.9° 1000.7 hPa 5.0 m/s 44.5 mm
15:00 18.0° 1001.4 hPa 3.2 m/s 45.1 mm 18.0° 1001.4 hPa 3.2 m/s 45.1 mm
18:00 14.2° 1002.9 hPa 3.3 m/s 45.8 mm 14.2° 1002.9 hPa 3.3 m/s 45.8 mm
21:00 10.9° 1004.2 hPa 2.2 m/s 45.8 mm 10.9° 1004.2 hPa 2.2 m/s 45.8 mm
 02:14     18:54    Daglengte: 16:40 Dinsdag 03 Aug
00:00 9.7° 1005.8 hPa 2.1 m/s 45.8 mm 9.7° 1005.8 hPa 2.1 m/s 45.8 mm
03:00 9.5° 1007.0 hPa 2.2 m/s 45.8 mm 9.5° 1007.0 hPa 2.2 m/s 45.8 mm
06:00 15.0° 1008.1 hPa 1.9 m/s 45.8 mm 15.0° 1008.1 hPa 1.9 m/s 45.8 mm
09:00 19.4° 1008.7 hPa 2.4 m/s 45.8 mm 19.4° 1008.7 hPa 2.4 m/s 45.8 mm
12:00 17.4° 1009.7 hPa 3.3 m/s 45.8 mm 17.4° 1009.7 hPa 3.3 m/s 45.8 mm
15:00 18.7° 1010.0 hPa 2.6 m/s 45.8 mm 18.7° 1010.0 hPa 2.6 m/s 45.8 mm
18:00 14.7° 1010.7 hPa 1.5 m/s 45.8 mm 14.7° 1010.7 hPa 1.5 m/s 45.8 mm
21:00 10.8° 1012.0 hPa 1.3 m/s 45.8 mm 10.8° 1012.0 hPa 1.3 m/s 45.8 mm
 02:16     18:51    Daglengte: 16:35 Woensdag 04 Aug
00:00 9.8° 1012.3 hPa 1.3 m/s 45.8 mm 9.8° 1012.3 hPa 1.3 m/s 45.8 mm
03:00 10.0° 1012.2 hPa 1.8 m/s 45.8 mm 10.0° 1012.2 hPa 1.8 m/s 45.8 mm
06:00 14.9° 1012.3 hPa 2.1 m/s 45.8 mm 14.9° 1012.3 hPa 2.1 m/s 45.8 mm
12:00 19.3° 1011.7 hPa 2.6 m/s 47.3 mm 19.3° 1011.7 hPa 2.6 m/s 47.3 mm
18:00 15.9° 1011.8 hPa 1.9 m/s 48.8 mm 15.9° 1011.8 hPa 1.9 m/s 48.8 mm
 02:19     18:49    Daglengte: 16:30 Donderdag 05 Aug
00:00 12.6° 1012.9 hPa 1.7 m/s 48.8 mm 12.6° 1012.9 hPa 1.7 m/s 48.8 mm
06:00 17.5° 1013.0 hPa 2.1 m/s 48.8 mm 17.5° 1013.0 hPa 2.1 m/s 48.8 mm
12:00 21.0° 1012.0 hPa 3.7 m/s 49.1 mm 21.0° 1012.0 hPa 3.7 m/s 49.1 mm
18:00 17.4° 1009.7 hPa 3.0 m/s 49.1 mm 17.4° 1009.7 hPa 3.0 m/s 49.1 mm
 02:21     18:46    Daglengte: 16:25 Vrijdag 06 Aug
00:00 16.8° 1007.3 hPa 3.4 m/s 49.1 mm 16.8° 1007.3 hPa 3.4 m/s 49.1 mm
06:00 19.7° 1005.7 hPa 4.3 m/s 49.3 mm 19.7° 1005.7 hPa 4.3 m/s 49.3 mm
12:00 24.1° 1005.4 hPa 4.4 m/s 49.6 mm 24.1° 1005.4 hPa 4.4 m/s 49.6 mm
18:00 20.5° 1004.2 hPa 2.9 m/s 50.1 mm 20.5° 1004.2 hPa 2.9 m/s 50.1 mm
 02:24     18:43    Daglengte: 16:19 Zaterdag 07 Aug
00:00 14.7° 1009.6 hPa 1.8 m/s 0.7 mm
06:00 17.9° 1008.6 hPa 2.9 m/s 0.8 mm
12:00 20.7° 1007.9 hPa 3.2 m/s 2.3 mm
18:00 17.6° 1007.5 hPa 2.3 m/s 2.0 mm
 02:26     18:41    Daglengte: 16:15 Zondag 08 Aug
00:00 15.3° 1007.5 hPa 2.1 m/s 0.6 mm
06:00 17.8° 1007.2 hPa 2.1 m/s 0.5 mm
12:00 21.1° 1007.9 hPa 2.6 m/s 0.8 mm
18:00 17.7° 1008.5 hPa 1.8 m/s 0.7 mm
 02:29     18:38    Daglengte: 16:09 Maandag 09 Aug
00:00 15.1° 1009.5 hPa 1.2 m/s 0.5 mm
06:00 17.9° 1010.1 hPa 1.6 m/s 0.4 mm
12:00 21.3° 1011.0 hPa 2.4 m/s 0.9 mm
18:00 17.4° 1011.2 hPa 1.1 m/s 0.6 mm
 02:31     18:35    Daglengte: 16:04 Dinsdag 10 Aug
00:00 14.7° 1011.7 hPa 0.5 m/s 0.3 mm
06:00 17.6° 1011.7 hPa 0.8 m/s 0.4 mm
12:00 21.2° 1012.1 hPa 1.1 m/s 0.0 mm
18:00 17.7° 1012.0 hPa 0.9 m/s 0.3 mm
 02:33     18:32    Daglengte: 15:59 Woensdag 11 Aug
00:00 14.9° 1012.5 hPa 0.5 m/s 0.4 mm
06:00 17.6° 1012.5 hPa 0.3 m/s 0.6 mm
12:00 21.8° 1012.5 hPa 1.1 m/s 0.7 mm
18:00 17.5° 1012.1 hPa 0.7 m/s 0.7 mm
 02:36     18:29    Daglengte: 15:53 Donderdag 12 Aug
00:00 14.5° 1012.0 hPa 0.2 m/s 0.5 mm